| time (UTC) | temp F | wind direction | speed MPH | gust MPH | rain 1hr in | rain 24hr in | rain mn in | humidity % | barometer mb |
| 20260831144509 | 81 | 221 | 5.0 | 11.0 | 0.00 | 0.00 | 0.00 | 78 | 1016.5 |
| 20260831143002 | 80 | 226 | 4.0 | 10.0 | 0.00 | 0.00 | 0.00 | 81 | 1016.4 |
| 20260831141502 | 80 | 186 | 1.0 | 8.0 | 0.00 | 0.00 | 0.00 | 83 | 1016.3 |
| 20260831140100 | 79 | 219 | 3.0 | 8.0 | 0.00 | 0.00 | 0.00 | 84 | 1016.1 |
| 20260831134559 | 79 | 183 | 3.0 | 10.0 | 0.00 | 0.00 | 0.00 | 87 | 1016.1 |
| 20260831133059 | 78 | 195 | 2.0 | 6.0 | 0.00 | 0.00 | 0.00 | 89 | 1015.8 |
| 20260831131555 | 77 | 205 | 2.0 | 4.0 | 0.00 | 0.00 | 0.00 | 90 | 1015.8 |
| 20260831130053 | 76 | 166 | 2.0 | 4.0 | 0.00 | 0.00 | 0.00 | 92 | 1015.7 |
| 20260831124554 | 75 | 194 | 2.0 | 4.0 | 0.00 | 0.00 | 0.00 | 93 | 1015.5 |
| 20260831123054 | 75 | 176 | 1.0 | 2.0 | 0.00 | 0.00 | 0.00 | 93 | 1015.5 |
| 20260831121552 | 74 | 173 | 1.0 | 3.0 | 0.00 | 0.00 | 0.00 | 93 | 1015.5 |
| 20260831120050 | 75 | 183 | 0.0 | 4.0 | 0.00 | 0.00 | 0.00 | 92 | 1015.5 |
| 20260831114549 | 75 | 216 | 1.0 | 3.0 | 0.00 | 0.00 | 0.00 | 92 | 1015.4 |
| 20260831113057 | 76 | 189 | 2.0 | 5.0 | 0.00 | 0.00 | 0.00 | 91 | 1015.4 |
| 20260831111548 | 76 | 210 | 2.0 | 8.0 | 0.00 | 0.00 | 0.00 | 91 | 1015.3 |
| 20260831110048 | 76 | 193 | 3.0 | 9.0 | 0.00 | 0.00 | 0.00 | 91 | 1015.2 |
| 20260831104547 | 76 | 169 | 2.0 | 5.0 | 0.00 | 0.00 | 0.00 | 91 | 1015.3 |
| 20260831103100 | 75 | 158 | 2.0 | 6.0 | 0.00 | 0.00 | 0.00 | 91 | 1015.2 |
| 20260831101555 | 75 | 210 | 3.0 | 8.0 | 0.00 | 0.00 | 0.00 | 91 | 1015.2 |
| 20260831100044 | 75 | 177 | 3.0 | 8.0 | 0.00 | 0.00 | 0.00 | 91 | 1015.2 |
| 20260831094543 | 75 | 214 | 3.0 | 8.0 | 0.00 | 0.00 | 0.00 | 90 | 1015.2 |
| 20260831093047 | 75 | 178 | 4.0 | 8.0 | 0.00 | 0.00 | 0.00 | 90 | 1015.2 |
| 20260831091542 | 75 | 169 | 4.0 | 8.0 | 0.00 | 0.00 | 0.00 | 89 | 1015.2 |
| 20260831090048 | 75 | 165 | 4.0 | 8.0 | 0.00 | 0.00 | 0.00 | 88 | 1015.2 |
| 20260831084543 | 75 | 145 | 5.0 | 8.0 | 0.00 | 0.00 | 0.00 | 88 | 1015.2 |
| 20260831083037 | 75 | 174 | 4.0 | 9.0 | 0.00 | 0.00 | 0.00 | 87 | 1015.2 |
| 20260831081535 | 75 | 234 | 4.0 | 8.0 | 0.00 | 0.00 | 0.00 | 86 | 1015.3 |
| 20260831080048 | 76 | 167 | 5.0 | 8.0 | 0.00 | 0.00 | 0.00 | 85 | 1015.3 |
| 20260831074531 | 76 | 152 | 5.0 | 9.0 | 0.00 | 0.00 | 0.00 | 84 | 1015.4 |
| 20260831073128 | 77 | 168 | 5.0 | 10.0 | 0.00 | 0.00 | 0.00 | 83 | 1015.3 |
| 20260831071526 | 77 | 184 | 4.0 | 9.0 | 0.00 | 0.00 | 0.00 | 81 | 1015.4 |
| 20260831070024 | 77 | 158 | 4.0 | 10.0 | 0.00 | 0.00 | 0.00 | 80 | 1015.4 |
| 20260831064522 | 78 | 160 | 5.0 | 9.0 | 0.00 | 0.00 | 0.00 | 79 | 1015.5 |
| 20260831063022 | 78 | 164 | 5.0 | 11.0 | 0.00 | 0.00 | 0.00 | 78 | 1015.6 |
| 20260831061516 | 79 | 172 | 4.0 | 13.0 | 0.00 | 0.00 | 0.00 | 76 | 1015.5 |
| 20260831060013 | 79 | 105 | 4.0 | 12.0 | 0.00 | 0.00 | 0.00 | 74 | 1015.4 |
| 20260831054510 | 80 | 141 | 4.0 | 10.0 | 0.00 | 0.00 | 0.00 | 73 | 1015.3 |
| 20260831053013 | 80 | 144 | 4.0 | 9.0 | 0.00 | 0.00 | 0.00 | 74 | 1015.1 |
| 20260831051510 | 81 | 94 | 3.0 | 9.0 | 0.00 | 0.00 | 0.00 | 73 | 1015.0 |
| 20260831050002 | 81 | 183 | 3.0 | 11.0 | 0.00 | 0.00 | 0.00 | 72 | 1015.0 |
| 20260831044503 | 82 | 153 | 6.0 | 12.0 | 0.00 | 0.00 | 0.00 | 71 | 1015.0 |
| 20260831043102 | 82 | 233 | 6.0 | 11.0 | 0.00 | 0.00 | 0.00 | 69 | 1015.0 |
| 20260831041625 | 83 | 174 | 6.0 | 12.0 | 0.00 | 0.00 | 0.00 | 68 | 1015.0 |
| 20260831040059 | 83 | 172 | 6.0 | 11.0 | 0.00 | 0.00 | 0.00 | 66 | 1015.0 |
| 20260831034558 | 84 | 168 | 5.0 | 11.0 | 0.00 | 0.00 | 0.00 | 65 | 1014.8 |
| 20260831033058 | 84 | 146 | 3.0 | 10.0 | 0.00 | 0.00 | 0.00 | 63 | 1014.6 |
| 20260831031608 | 85 | 198 | 3.0 | 10.0 | 0.00 | 0.00 | 0.00 | 61 | 1014.5 |
| 20260831030114 | 85 | 136 | 4.0 | 12.0 | 0.00 | 0.00 | 0.00 | 60 | 1014.2 |
| 20260831024556 | 86 | 131 | 5.0 | 11.0 | 0.00 | 0.00 | 0.00 | 59 | 1014.0 |
| 20260831023054 | 86 | 125 | 3.0 | 13.0 | 0.00 | 0.00 | 0.00 | 57 | 1013.6 |
| 20260831021555 | 87 | 170 | 4.0 | 10.0 | 0.00 | 0.00 | 0.00 | 55 | 1013.4 |
| 20260831020052 | 87 | 139 | 3.0 | 7.0 | 0.00 | 0.00 | 0.00 | 54 | 1013.2 |
| 20260831014551 | 88 | 137 | 5.0 | 11.0 | 0.00 | 0.00 | 0.00 | 53 | 1013.1 |
| 20260831013051 | 89 | 131 | 7.0 | 12.0 | 0.00 | 0.00 | 0.00 | 50 | 1012.8 |
| 20260831011555 | 89 | 134 | 2.0 | 5.0 | 0.00 | 0.00 | 0.00 | 48 | 1012.6 |
| 20260831010055 | 90 | 141 | 2.0 | 5.0 | 0.00 | 0.00 | 0.00 | 47 | 1012.7 |
| 20260831004552 | 92 | 148 | 3.0 | 5.0 | 0.00 | 0.00 | 0.00 | 45 | 1012.5 |
| 20260831003050 | 93 | 148 | 2.0 | 8.0 | 0.00 | 0.00 | 0.00 | 42 | 1012.5 |
| 20260831001547 | 94 | 156 | 4.0 | 7.0 | 0.00 | 0.00 | 0.00 | 41 | 1012.4 |
| 20260831000057 | 94 | 194 | 4.0 | 9.0 | 0.00 | 0.00 | 0.00 | 40 | 1012.4 |
| 20260830234548 | 94 | 204 | 3.0 | 10.0 | 0.00 | 0.00 | 0.00 | 40 | 1012.5 |
| 20260830233043 | 95 | 195 | 3.0 | 8.0 | 0.00 | 0.00 | 0.00 | 40 | 1012.5 |
| 20260830231542 | 95 | 183 | 6.0 | 10.0 | 0.00 | 0.00 | 0.00 | 39 | 1012.6 |
| 20260830230040 | 95 | 163 | 6.0 | 11.0 | 0.00 | 0.00 | 0.00 | 40 | 1012.6 |
| 20260830224547 | 95 | 109 | 4.0 | 10.0 | 0.00 | 0.00 | 0.00 | 40 | 1012.7 |
| 20260830223044 | 94 | 149 | 4.0 | 11.0 | 0.00 | 0.00 | 0.00 | 41 | 1012.8 |
| 20260830221535 | 94 | 130 | 2.0 | 11.0 | 0.00 | 0.00 | 0.00 | 41 | 1012.7 |
| 20260830220034 | 94 | 155 | 8.0 | 14.0 | 0.00 | 0.00 | 0.00 | 40 | 1012.9 |
| 20260830214532 | 94 | 174 | 7.0 | 12.0 | 0.00 | 0.00 | 0.00 | 40 | 1013.0 |
| 20260830213029 | 94 | 148 | 5.0 | 15.0 | 0.00 | 0.00 | 0.00 | 43 | 1013.1 |
| 20260830211532 | 94 | 138 | 6.0 | 13.0 | 0.00 | 0.00 | 0.00 | 44 | 1013.5 |
| 20260830210024 | 93 | 148 | 8.0 | 14.0 | 0.00 | 0.00 | 0.00 | 45 | 1013.7 |
| 20260830204534 | 94 | 167 | 6.0 | 14.0 | 0.00 | 0.00 | 0.00 | 46 | 1013.9 |
| 20260830203019 | 93 | 169 | 5.0 | 13.0 | 0.00 | 0.00 | 0.00 | 48 | 1014.2 |
| 20260830201518 | 92 | 145 | 2.0 | 18.0 | 0.00 | 0.00 | 0.00 | 50 | 1014.3 |
| 20260830200015 | 93 | 151 | 4.0 | 14.0 | 0.00 | 0.00 | 0.00 | 47 | 1014.6 |
| 20260830194512 | 93 | 322 | 1.0 | 12.0 | 0.00 | 0.00 | 0.00 | 48 | 1014.8 |
| 20260830193011 | 91 | 107 | 7.0 | 14.0 | 0.00 | 0.00 | 0.00 | 49 | 1015.0 |
| 20260830191508 | 92 | 135 | 2.0 | 9.0 | 0.00 | 0.00 | 0.00 | 49 | 1015.2 |
| 20260830190006 | 91 | 137 | 6.0 | 12.0 | 0.00 | 0.00 | 0.00 | 51 | 1015.5 |
| 20260830184510 | 91 | 178 | 2.0 | 8.0 | 0.00 | 0.00 | 0.00 | 53 | 1015.6 |
| 20260830183003 | 90 | 193 | 5.0 | 13.0 | 0.00 | 0.00 | 0.00 | 54 | 1015.9 |
| 20260830181502 | 90 | 189 | 4.0 | 10.0 | 0.00 | 0.00 | 0.00 | 53 | 1016.2 |
| 20260830180103 | 90 | 102 | 5.0 | 15.0 | 0.00 | 0.00 | 0.00 | 53 | 1016.4 |
| 20260830174602 | 90 | 188 | 4.0 | 11.0 | 0.00 | 0.00 | 0.00 | 53 | 1016.8 |
| 20260830173106 | 88 | 155 | 5.0 | 14.0 | 0.00 | 0.00 | 0.00 | 55 | 1016.9 |
| 20260830171555 | 88 | 162 | 5.0 | 12.0 | 0.00 | 0.00 | 0.00 | 55 | 1017.1 |
| 20260830170058 | 88 | 162 | 3.0 | 12.0 | 0.00 | 0.00 | 0.00 | 57 | 1017.1 |
| 20260830164600 | 88 | 150 | 4.0 | 11.0 | 0.00 | 0.00 | 0.00 | 58 | 1017.3 |
| 20260830163106 | 86 | 208 | 3.0 | 8.0 | 0.00 | 0.00 | 0.00 | 64 | 1017.4 |
| 20260830161550 | 86 | 115 | 2.0 | 9.0 | 0.00 | 0.00 | 0.00 | 63 | 1017.4 |
| 20260830160046 | 85 | 153 | 7.0 | 13.0 | 0.00 | 0.00 | 0.00 | 64 | 1017.3 |
| 20260830154546 | 84 | 147 | 6.0 | 13.0 | 0.00 | 0.00 | 0.00 | 66 | 1017.1 |
| 20260830153039 | 82 | 243 | 3.0 | 11.0 | 0.00 | 0.00 | 0.00 | 72 | 1017.2 |
| 20260830151537 | 81 | 243 | 4.0 | 13.0 | 0.00 | 0.00 | 0.00 | 76 | 1017.1 |
| 20260830150040 | 80 | 232 | 4.0 | 11.0 | 0.00 | 0.00 | 0.00 | 77 | 1017.0 |